Regional Weather Roundup
Issued by NWS Mt. Holly, NJ

Home | Current Version | Previous Version | Text Only | Print | Product List | Glossary On
Versions: 1 2 3 4 5 6 7 8 9 10 11 12 13 14 15 16 17 18 19 20 21 22 23 24 25 26 27
000
ASUS41 KPHI 161512
RWRPHI

REGIONAL WEATHER ROUNDUP
NATIONAL WEATHER SERVICE MOUNT HOLLY NJ
1000 AM EST SAT DEC 16 2017

NOTE:  "FAIR" INDICATES FEW OR NO CLOUDS BELOW 12,000 FEET WITH NO
SIGNIFICANT WEATHER AND/OR OBSTRUCTIONS TO VISIBILITY.

 * = STATION DOES NOT REPORT PRECIPITATION (E.G. RAIN, SNOW, ETC.)
        OR FOG.

NJZ015>026-161600-
SOUTHERN NEW JERSEY

CITY           SKY/WX    TMP DP  RH WIND       PRES   REMARKS
POMONA         SUNNY     35  25  66 SW8       30.14R WCI  29
WILDWOOD*      MOSUNNY   37  22  54 W12G20    30.17R WCI  29
MILLVILLE      CLOUDY    34  27  75 SW12      30.15S WCI  25
WRIGHTSTOWN    PTSUNNY   30  22  72 SW7       30.08R WCI  23
MOUNT HOLLY    CLOUDY    31  22  69 SW8G16    30.11S WCI  23
TRENTON        PTSUNNY   30  20  66 SW6       30.09R WCI  24

$$
NJZ001>014-161600-
NORTHERN NEW JERSEY

CITY           SKY/WX    TMP DP  RH WIND       PRES   REMARKS
SUSSEX         CLOUDY    23  17  78 S7        30.01R WCI  15
ANDOVER*         N/A     24  19  81 SW6       30.03R WCI  17
MORRISTOWN     CLOUDY    27  19  74 SW10      30.08R WCI  17
NEWARK         PTSUNNY   30  19  63 SW14      30.09R WCI  19
TETERBORO      PTSUNNY   30  19  63 SW12      30.07R WCI  20
CALDWELL       CLOUDY    26  17  68 VRB6      30.07R WCI  19
SOMERVILLE     CLOUDY    27  22  81 CALM      30.07R
ALLAIRE*       MOSUNNY   32  22  66 SW14      30.10S WCI  22
TOMS RIVER*    SUNNY     31  24  75 SW12      30.12S WCI  22

$$
PAZ043-044-047-054-055-060>062-066>071-161600-
EASTERN PENNSYLVANIA

CITY           SKY/WX    TMP DP  RH WIND       PRES   REMARKS
PHILADELPHIA   PTSUNNY   32  25  75 SW15      30.13S WCI  22
NORTH PHILA    MOSUNNY   33  23  66 SW14      30.11S WCI  23
BLUE BELL*     CLOUDY    32  21  64 SW7       30.11S WCI  26
DOYLESTOWN     CLOUDY    28  19  69 SW8       30.06S WCI  20
QUAKERTOWN*    CLOUDY    28  19  69 SW6       30.06F WCI  22
PERKASIE*      CLOUDY    27  19  74 S6        30.07S WCI  20
POTTSTOWN      CLOUDY    29  20  69 SW6       30.10S WCI  23
LANCASTER      PTSUNNY   31  21  66 SW7       30.08S WCI  24
COATESVILLE    CLOUDY    28  21  74 SW8       30.10R WCI  20
READING        CLOUDY    29  21  72 SW8       30.07R WCI  21
ALLENTOWN      CLOUDY    29  18  63 SW9       30.05S WCI  20
MOUNT POCONO   CLOUDY    23  18  81 SW13      29.91R WCI  11
HAZLETON       CLOUDY    30  19  64 SW5       29.97F WCI  25
LEHIGHTON      CLOUDY    16  14  93 CALM      30.05S FOG
WILKES BARRE   CLOUDY    25  18  74 W8        29.97R WCI  16

$$
DEZALL-MDZ008-012-015-019-020-161600-
DELAWARE AND EASTERN MARYLAND

CITY           SKY/WX    TMP DP  RH WIND       PRES   REMARKS
WILMINGTON     PTSUNNY   33  25  72 SW8       30.14S WCI  26
DOVER          CLOUDY    33  30  88 SW9       30.16S WCI  25
GEORGETOWN     CLOUDY    32  26  78 SW6       30.19R WCI  26
EASTON         SUNNY     37  25  60 W10       30.20R WCI  30
ABERDEEN       MOSUNNY  N/A N/A N/A W7        30.16R
PATUXENT       MOSUNNY   37  25  61 SW10      30.19S WCI  30
OCEAN CITY     PTSUNNY   38  28  67 W6        30.20R WCI  33
WALLOPS ISLAND SUNNY     41  27  57 W9        30.21R
CAMBRIDGE      MOSUNNY   34  27  75 S5        30.19S WCI  30
SALISBURY      PTSUNNY   38  30  73 W8        30.19R WCI  32

$$
PAZ001-021-NYZ056-072-MDZ011-DCZ001-161600-
OTHER NEARBY LOCATIONS

CITY           SKY/WX    TMP DP  RH WIND       PRES   REMARKS
HARRISBURG     PTSUNNY   35  22  58 SW10      30.06S WCI  27
STATE COLLEGE  CLOUDY    32  25  74 SW15G26   29.98S WCI  22
WILLIAMSPORT   CLOUDY    26  19  74 CALM      30.00S
BINGHAMTON     LGT SNOW  21  17  84 SW7       29.89R FOG     WCI  12
NEW YORK CITY  MOSUNNY   31  18  58 MISG      30.07S
BALTIMORE      MOSUNNY   34  23  64 SW3       30.15R
WASHINGTON DC  MOSUNNY   37  22  54 SW13      30.18R WCI  29

$$




USA.gov is the U.S. government's official web portal to all federal, state and local government web resources and services.